DW0364 Weather Reports


Display with metric or nautical units.
time (UTC)temp
F
wind
direction
speed
MPH
gust
MPH
rain 1hr
in
rain 24hr
in
rain mn
in
humidity
%
barometer
mb
20260906035957 71 358 0.0 0.0 0.00 0.02 0.02 99 1013.1
20260906035453 71 358 0.0 0.0 0.00 0.02 0.02 99 1013.1
20260906034948 71 358 0.0 0.0 0.00 0.02 0.02 99 1012.9
20260906034443 72 358 0.0 0.0 0.00 0.02 0.02 99 1013.0
20260906033939 72 358 0.0 0.0 0.00 0.02 0.02 99 1013.1
20260906033438 72 358 0.0 0.0 0.00 0.02 0.02 99 1013.1
20260906032935 71 358 0.0 0.0 0.00 0.02 0.02 99 1013.0
20260906032431 71 358 0.0 0.0 0.00 0.02 0.02 99 1013.2
20260906031924 71 358 0.0 0.0 0.00 0.02 0.02 99 1013.3
20260906031420 72 358 0.0 0.0 0.00 0.02 0.02 99 1013.3
20260906030915 72 358 0.0 0.0 0.00 0.02 0.02 99 1013.3
20260906030410 72 358 0.0 0.0 0.00 0.02 0.02 99 1013.4
20260906025904 72 358 0.0 0.0 0.00 0.02 0.02 99 1013.1
20260906025359 72 358 0.0 0.0 0.00 0.02 0.02 99 1013.2
20260906024857 72 358 0.0 0.0 0.00 0.02 0.02 99 1013.2
20260906024357 72 358 0.0 0.0 0.00 0.02 0.02 99 1012.8
20260906023852 72 358 0.0 0.0 0.00 0.02 0.02 99 1012.8
20260906023348 72 358 0.0 0.0 0.00 0.02 0.02 99 1012.9
20260906022843 72 358 0.0 0.0 0.00 0.02 0.02 99 1012.7
20260906022338 72 358 0.0 0.0 0.00 0.02 0.02 99 1012.8
20260906021834 72 358 0.0 0.0 0.00 0.02 0.02 99 1012.7
20260906021333 72 358 0.0 0.0 0.00 0.02 0.02 99 1012.5
20260906020828 72 358 0.0 0.0 0.00 0.02 0.02 99 1012.6
20260906020327 72 358 0.0 0.0 0.00 0.02 0.02 99 1012.4
20260906015822 73 358 0.0 0.0 0.00 0.02 0.02 99 1012.5
20260906015320 73 358 0.0 0.0 0.00 0.02 0.02 99 1012.4
20260906014815 73 358 0.0 0.0 0.00 0.02 0.02 99 1012.3
20260906014310 73 358 0.0 0.0 0.00 0.02 0.02 99 1012.5
20260906013806 73 358 0.0 0.0 0.00 0.02 0.02 99 1012.5
20260906013307 73 358 0.0 0.0 0.00 0.02 0.02 99 1012.4
20260906012802 73 358 0.0 0.0 0.00 0.02 0.02 99 1012.5
20260906012257 73 358 0.0 0.0 0.00 0.02 0.02 99 1012.4
20260906011752 73 358 0.0 0.0 0.00 0.02 0.02 99 1012.4
20260906011252 73 358 0.0 0.0 0.00 0.02 0.02 99 1012.4
20260906010748 73 358 0.0 0.0 0.00 0.02 0.02 99 1012.3
20260906010244 74 358 0.0 0.0 0.00 0.02 0.02 99 1012.3
20260906005738 74 358 0.0 0.0 0.00 0.02 0.02 99 1012.5
20260906005232 74 358 0.0 0.0 0.00 0.02 0.02 99 1012.2
20260906004732 74 358 0.0 0.0 0.00 0.02 0.02 99 1012.2
20260906004227 74 358 0.0 0.0 0.00 0.02 0.02 99 1012.3
20260906003721 75 358 0.0 0.0 0.00 0.02 0.02 99 1012.1
20260906003212 75 358 0.0 0.0 0.00 0.02 0.02 99 1012.1
20260906002712 75 358 0.0 0.0 0.00 0.02 0.02 99 1012.1
20260906002207 75 358 0.0 0.0 0.00 0.02 0.02 99 1012.0
20260906001702 75 358 0.0 0.0 0.00 0.02 0.02 99 1012.1
20260906001201 75 358 0.0 0.0 0.00 0.02 0.02 99 1012.0
20260906000657 76 358 0.0 0.0 0.00 0.02 0.02 99 1012.1
20260906000152 76 358 0.0 0.0 0.00 0.02 0.02 98 1011.9
20260905235651 76 358 0.0 0.0 0.00 0.02 0.02 98 1011.9
20260905235146 77 358 0.0 0.0 0.00 0.02 0.02 97 1011.9
20260905234641 77 358 0.0 0.0 0.00 0.02 0.02 96 1011.8
20260905234137 77 358 0.0 0.0 0.00 0.02 0.02 96 1011.8
20260905233632 77 358 0.0 0.0 0.00 0.02 0.02 96 1011.7
20260905233126 77 358 0.0 0.0 0.00 0.02 0.02 95 1011.5
20260905232622 78 358 0.0 0.0 0.00 0.02 0.02 94 1011.5
20260905232117 78 358 0.0 0.0 0.00 0.02 0.02 93 1011.5
20260905231617 78 358 0.0 0.0 0.00 0.02 0.02 93 1011.6
20260905231114 78 358 0.0 0.0 0.00 0.02 0.02 93 1011.6
20260905230609 78 358 0.0 0.0 0.00 0.02 0.02 93 1011.5
20260905230106 78 358 0.0 0.0 0.00 0.02 0.02 93 1011.4
20260905225601 78 358 0.0 0.0 0.00 0.02 0.02 92 1011.5
20260905225056 79 358 0.0 0.0 0.00 0.02 0.02 91 1011.5
20260905224556 79 358 0.0 0.0 0.00 0.02 0.02 90 1011.5
20260905224055 79 357 0.0 0.0 0.00 0.02 0.02 89 1011.7
20260905223553 79 351 0.0 0.0 0.00 0.02 0.02 89 1011.7
20260905223049 79 351 0.0 0.0 0.00 0.02 0.02 88 1011.6
20260905222548 79 351 0.0 0.0 0.00 0.02 0.02 87 1011.4
20260905222044 79 351 0.0 0.0 0.00 0.02 0.02 87 1011.5
20260905221540 79 350 0.0 0.0 0.00 0.02 0.02 87 1011.5
20260905221036 79 349 0.0 0.0 0.00 0.02 0.02 87 1011.7
20260905220531 79 349 0.0 0.0 0.00 0.02 0.02 87 1011.5
20260905220028 79 348 0.0 0.0 0.00 0.02 0.02 87 1011.6
20260905215526 79 310 1.0 1.0 0.00 0.02 0.02 86 1011.4
20260905215023 79 348 0.0 1.0 0.00 0.02 0.02 86 1011.7
20260905214519 79 328 0.0 1.0 0.00 0.02 0.02 87 1011.8
20260905214014 77 328 0.0 0.0 0.00 0.02 0.02 87 1012.1
20260905213509 77 327 1.0 1.0 0.00 0.02 0.02 87 1012.0
20260905213004 78 279 0.0 0.0 0.00 0.02 0.02 87 1012.0
20260905212459 77 276 0.0 1.0 0.00 0.02 0.02 86 1012.1
20260905211958 77 275 0.0 1.0 0.00 0.02 0.02 87 1012.0
20260905211454 77 274 2.0 2.0 0.00 0.02 0.02 86 1012.1
20260905210950 77 281 1.0 2.0 0.00 0.02 0.02 86 1012.1
20260905210445 76 281 1.0 1.0 0.00 0.02 0.02 88 1012.2
20260905205944 75 281 0.0 2.0 0.00 0.02 0.02 88 1012.3
20260905205439 75 281 0.0 2.0 0.00 0.02 0.02 91 1012.3
20260905204938 75 281 2.0 2.0 0.00 0.02 0.02 92 1012.2
20260905204434 74 357 1.0 1.0 0.00 0.02 0.02 96 1012.7
20260905203933 73 358 0.0 1.0 0.00 0.02 0.02 95 1012.4
20260905203429 73 358 0.0 0.0 0.00 0.02 0.02 97 1012.6
20260905202924 73 339 0.0 0.0 0.00 0.02 0.02 99 1012.4
20260905202419 73 337 0.0 0.0 0.00 0.02 0.02 99 1012.8
20260905201915 73 8 0.0 1.0 0.00 0.02 0.02 99 1012.9
20260905201410 73 329 0.0 0.0 0.00 0.02 0.02 99 1012.6
20260905200910 73 317 0.0 0.0 0.00 0.02 0.02 99 1012.5
20260905200406 73 317 0.0 1.0 0.00 0.02 0.02 98 1012.5
20260905195903 73 328 0.0 0.0 0.00 0.02 0.02 97 1012.5
20260905195359 73 326 0.0 1.0 0.00 0.02 0.02 97 1012.6
20260905194855 73 30 2.0 2.0 0.00 0.02 0.02 98 1012.9
20260905194354 73 334 0.0 1.0 0.00 0.02 0.02 97 1012.9
20260905193854 73 316 0.0 1.0 0.00 0.02 0.02 96 1013.3
20260905193348 73 315 0.0 2.0 0.00 0.02 0.02 96 1013.5
20260905192844 73 302 2.0 2.0 0.00 0.02 0.02 98 1013.3
20260905192340 75 342 0.0 1.0 0.00 0.02 0.02 96 1012.4
20260905191839 75 325 0.0 2.0 0.00 0.02 0.02 93 1011.9
20260905191338 75 299 1.0 2.0 0.00 0.02 0.02 93 1012.3
20260905190837 77 320 0.0 2.0 0.05 0.02 0.02 95 1012.4
20260905190331 78 313 1.0 1.0 0.05 0.02 0.02 97 1012.2
20260905185830 78 310 1.0 1.0 0.00 0.01 0.01 96 1012.1
20260905185325 79 309 0.0 1.0 0.07 0.01 0.01 93 1012.2
20260905184824 82 299 0.0 1.0 0.07 0.01 0.01 87 1012.3
20260905184323 87 275 1.0 3.0 0.00 0.00 0.00 74 1012.2
20260905183822 88 342 3.0 6.0 0.00 0.00 0.00 69 1012.6
20260905183317 89 303 1.0 1.0 0.00 0.00 0.00 81 1012.3
20260905182812 89 0 0.0 1.0 0.00 0.00 0.00 80 1012.1
20260905182312 90 311 0.0 1.0 0.00 0.00 0.00 73 1011.9
20260905181807 93 308 0.0 1.0 0.00 0.00 0.00 61 1012.3
20260905181306 95 301 1.0 2.0 0.00 0.00 0.00 56 1012.3
20260905180800 95 84 0.0 2.0 0.00 0.00 0.00 57 1012.4
20260905180255 93 11 1.0 2.0 0.00 0.00 0.00 54 1012.4
20260905175750 96 302 1.0 1.0 0.00 0.00 0.00 55 1012.5
20260905175245 95 298 0.0 2.0 0.00 0.00 0.00 53 1012.7
20260905174740 94 290 0.0 2.0 0.00 0.00 0.00 57 1012.9
20260905174236 94 5 1.0 1.0 0.00 0.00 0.00 56 1013.1
20260905173732 95 9 0.0 1.0 0.00 0.00 0.00 57 1013.3
20260905173227 95 328 1.0 1.0 0.00 0.00 0.00 56 1013.0
20260905172727 94 20 0.0 1.0 0.00 0.00 0.00 57 1013.2
20260905172221 95 290 2.0 2.0 0.00 0.00 0.00 57 1013.5
20260905171717 94 278 1.0 1.0 0.00 0.00 0.00 56 1013.2
20260905171213 95 320 1.0 1.0 0.00 0.00 0.00 54 1013.6
20260905170710 96 339 0.0 1.0 0.00 0.00 0.00 55 1013.3
20260905170210 95 270 1.0 1.0 0.00 0.00 0.00 54 1013.6
20260905165709 94 267 0.0 1.0 0.00 0.00 0.00 57 1013.7
20260905165205 94 53 1.0 2.0 0.00 0.00 0.00 54 1013.7
20260905164659 94 356 0.0 2.0 0.00 0.00 0.00 56 1013.8
20260905164159 93 46 1.0 2.0 0.00 0.00 0.00 58 1013.8
20260905163655 93 314 0.0 1.0 0.00 0.00 0.00 63 1013.9
20260905163152 93 55 1.0 2.0 0.00 0.00 0.00 62 1013.9
20260905162647 95 350 1.0 1.0 0.00 0.00 0.00 59 1014.1
20260905162146 94 314 0.0 1.0 0.00 0.00 0.00 61 1014.0
20260905161641 92 4 1.0 2.0 0.00 0.00 0.00 62 1014.0
20260905161139 93 13 0.0 1.0 0.00 0.00 0.00 64 1014.0
20260905160639 91 328 0.0 0.0 0.00 0.00 0.00 65 1014.1
20260905160133 91 290 1.0 1.0 0.00 0.00 0.00 65 1014.1
20260905155633 91 0 0.0 1.0 0.00 0.00 0.00 65 1014.2
20260905155131 91 286 1.0 1.0 0.00 0.00 0.00 65 1014.2
20260905154626 90 273 1.0 1.0 0.00 0.00 0.00 69 1014.2
20260905154122 91 23 1.0 2.0 0.00 0.00 0.00 67 1014.3
20260905153617 90 317 1.0 1.0 0.00 0.00 0.00 70 1014.1
20260905153113 91 17 1.0 3.0 0.00 0.00 0.00 68 1014.0
20260905152607 89 327 0.0 1.0 0.00 0.00 0.00 69 1014.2
20260905152102 90 33 0.0 2.0 0.00 0.00 0.00 69 1014.2
20260905151557 89 267 1.0 1.0 0.00 0.00 0.00 70 1014.1
20260905151052 89 267 1.0 1.0 0.00 0.00 0.00 69 1014.2
20260905150548 89 268 2.0 2.0 0.00 0.00 0.00 70 1014.1
20260905150045 89 286 1.0 1.0 0.00 0.00 0.00 72 1014.1
20260905145539 88 263 0.0 2.0 0.00 0.00 0.00 74 1014.2
20260905145038 88 293 0.0 1.0 0.00 0.00 0.00 76 1014.2
20260905144533 87 294 0.0 1.0 0.00 0.00 0.00 77 1014.1
20260905144032 88 274 1.0 1.0 0.00 0.00 0.00 75 1014.3
20260905143532 88 304 1.0 1.0 0.00 0.00 0.00 77 1014.3
20260905143027 87 259 0.0 1.0 0.00 0.00 0.00 79 1014.2
20260905142526 88 270 1.0 1.0 0.00 0.00 0.00 76 1014.3
20260905142021 86 272 0.0 1.0 0.00 0.00 0.00 78 1014.1
20260905141515 88 271 1.0 1.0 0.00 0.00 0.00 75 1014.2
20260905141012 85 271 0.0 1.0 0.00 0.00 0.00 80 1014.1
20260905140507 86 292 0.0 1.0 0.00 0.00 0.00 78 1014.2
20260905140005 88 290 1.0 1.0 0.00 0.00 0.00 77 1014.2
20260905135501 86 331 0.0 1.0 0.00 0.00 0.00 78 1014.3
20260905134956 85 350 0.0 2.0 0.00 0.00 0.00 80 1014.3
20260905134455 85 267 0.0 1.0 0.00 0.00 0.00 79 1014.2
20260905133955 86 265 1.0 1.0 0.00 0.00 0.00 78 1014.4
20260905133451 88 261 0.0 0.0 0.00 0.00 0.00 75 1014.2
20260905132949 87 261 0.0 0.0 0.00 0.00 0.00 78 1014.4
20260905132445 85 262 0.0 0.0 0.00 0.00 0.00 79 1014.4
20260905131939 83 262 1.0 1.0 0.00 0.00 0.00 83 1014.2
20260905131436 83 275 1.0 1.0 0.00 0.00 0.00 84 1014.4
20260905130935 83 273 0.0 1.0 0.00 0.00 0.00 84 1014.3
20260905130430 82 308 0.0 0.0 0.00 0.00 0.00 88 1014.5
20260905125930 82 308 0.0 0.0 0.00 0.00 0.00 89 1014.3
20260905125424 81 308 0.0 0.0 0.00 0.00 0.00 91 1014.5
20260905124920 82 308 0.0 1.0 0.00 0.00 0.00 90 1014.2
20260905124417 82 308 0.0 0.0 0.00 0.00 0.00 90 1014.4
20260905123916 79 307 0.0 0.0 0.00 0.00 0.00 95 1014.4
20260905123413 77 307 0.0 0.0 0.00 0.00 0.00 98 1014.6
20260905122908 77 12 0.0 0.0 0.00 0.00 0.00 99 1014.4
20260905122407 77 13 0.0 0.0 0.00 0.00 0.00 99 1014.5
20260905121903 76 14 0.0 0.0 0.00 0.00 0.00 99 1014.6
20260905121359 75 14 0.0 0.0 0.00 0.00 0.00 99 1014.5
20260905120857 75 13 0.0 0.0 0.00 0.00 0.00 99 1014.4
20260905120352 75 13 0.0 0.0 0.00 0.00 0.00 99 1014.3
20260905115847 74 13 0.0 0.0 0.00 0.00 0.00 99 1014.3
20260905115346 74 13 0.0 0.0 0.00 0.00 0.00 99 1014.4
20260905114841 73 13 0.0 0.0 0.00 0.00 0.00 99 1014.2
20260905114340 73 13 0.0 0.0 0.00 0.00 0.00 99 1014.2
20260905113840 73 13 0.0 0.0 0.00 0.00 0.00 99 1014.4
20260905113336 73 13 0.0 0.0 0.00 0.00 0.00 99 1014.2
20260905112831 73 13 0.0 0.0 0.00 0.00 0.00 99 1014.0
20260905112325 73 13 0.0 0.0 0.00 0.00 0.00 99 1014.0
20260905111821 73 13 0.0 0.0 0.00 0.00 0.00 99 1013.8
20260905111315 73 13 0.0 0.0 0.00 0.00 0.00 99 1013.8
20260905110814 73 13 0.0 0.0 0.00 0.00 0.00 99 1013.6
20260905110308 73 13 0.0 0.0 0.00 0.00 0.00 99 1013.6
20260905105804 73 13 0.0 0.0 0.00 0.00 0.00 99 1013.4
20260905105306 73 13 0.0 0.0 0.00 0.00 0.00 99 1013.3
20260905104757 73 13 0.0 0.0 0.00 0.00 0.00 99 1013.0
20260905104254 73 13 0.0 0.0 0.00 0.00 0.00 99 1013.2
20260905103753 73 13 0.0 0.0 0.00 0.00 0.00 99 1013.2
20260905103249 73 13 0.0 0.0 0.00 0.00 0.00 99 1013.2
20260905102744 73 13 0.0 0.0 0.00 0.00 0.00 99 1013.0
20260905102241 73 13 0.0 0.0 0.00 0.00 0.00 99 1013.1
20260905101741 73 13 0.0 0.0 0.00 0.00 0.00 99 1013.0
20260905101239 73 13 0.0 0.0 0.00 0.00 0.00 99 1013.1
20260905100734 73 13 0.0 0.0 0.00 0.00 0.00 99 1012.9
20260905100230 74 13 0.0 0.0 0.00 0.00 0.00 99 1013.0
20260905095724 74 13 0.0 0.0 0.00 0.00 0.00 99 1013.0
20260905095223 73 13 0.0 0.0 0.00 0.00 0.00 99 1013.0
20260905094718 74 13 0.0 0.0 0.00 0.00 0.00 99 1013.2
20260905094213 73 13 0.0 0.0 0.00 0.00 0.00 99 1013.1
20260905093707 73 13 0.0 0.0 0.00 0.00 0.00 99 1013.0
20260905093203 73 13 0.0 0.0 0.00 0.00 0.00 99 1013.1
20260905092659 73 13 0.0 0.0 0.00 0.00 0.00 99 1013.1
20260905092154 74 13 0.0 0.0 0.00 0.00 0.00 99 1013.0
20260905091654 74 13 0.0 0.0 0.00 0.00 0.00 99 1013.2
20260905091153 74 13 0.0 0.0 0.00 0.00 0.00 99 1013.0
20260905090648 74 13 0.0 0.0 0.00 0.00 0.00 99 1013.1
20260905090144 74 13 0.0 0.0 0.00 0.00 0.00 99 1013.1
20260905085642 74 13 0.0 0.0 0.00 0.00 0.00 99 1013.3
20260905085137 74 13 0.0 0.0 0.00 0.00 0.00 99 1013.2
20260905084637 74 13 0.0 0.0 0.00 0.00 0.00 99 1013.3
20260905084132 74 13 0.0 0.0 0.00 0.00 0.00 99 1013.3
20260905083626 75 13 0.0 0.0 0.00 0.00 0.00 99 1013.4
20260905083123 75 13 0.0 0.0 0.00 0.00 0.00 99 1013.4
20260905082618 74 13 0.0 0.0 0.00 0.00 0.00 99 1013.5
20260905082114 74 13 0.0 0.0 0.00 0.00 0.00 99 1013.4
20260905081608 75 13 0.0 0.0 0.00 0.00 0.00 99 1013.5
20260905081103 75 13 0.0 0.0 0.00 0.00 0.00 99 1013.7
20260905080603 74 13 0.0 0.0 0.00 0.00 0.00 99 1013.5
20260905080057 74 13 0.0 0.0 0.00 0.00 0.00 99 1013.5
20260905075550 74 13 0.0 0.0 0.00 0.00 0.00 99 1013.6
20260905075045 74 13 0.0 0.0 0.00 0.00 0.00 99 1013.5
20260905074544 74 13 0.0 0.0 0.00 0.00 0.00 99 1013.8
20260905074040 74 13 0.0 0.0 0.00 0.00 0.00 99 1013.6
20260905073535 75 13 0.0 0.0 0.00 0.00 0.00 99 1013.6
20260905073031 75 13 0.0 0.0 0.00 0.00 0.00 99 1014.0
20260905072530 75 13 0.0 0.0 0.00 0.00 0.00 99 1013.8
20260905072026 75 13 0.0 0.0 0.00 0.00 0.00 99 1013.6
20260905071523 75 14 0.0 0.0 0.00 0.00 0.00 99 1014.1
20260905071022 75 14 0.0 0.0 0.00 0.00 0.00 99 1013.9
20260905070518 75 13 0.0 0.0 0.00 0.00 0.00 99 1014.0
20260905070014 76 14 0.0 0.0 0.00 0.00 0.00 99 1014.0
20260905065511 76 14 0.0 0.0 0.00 0.00 0.00 99 1014.2
20260905065007 76 14 0.0 0.0 0.00 0.00 0.00 99 1014.1
20260905064501 76 14 0.0 0.0 0.00 0.00 0.00 98 1014.2
20260905063956 77 14 0.0 0.0 0.00 0.00 0.00 98 1014.3
20260905063445 77 14 0.0 0.0 0.00 0.00 0.00 98 1014.4
20260905062941 77 14 0.0 0.0 0.00 0.00 0.00 98 1014.4
20260905062435 77 357 0.0 1.0 0.00 0.00 0.00 98 1014.5
20260905061930 77 301 0.0 0.0 0.00 0.00 0.00 97 1014.6
20260905061425 77 301 0.0 0.0 0.00 0.00 0.00 97 1014.6
20260905060924 77 301 0.0 0.0 0.00 0.00 0.00 97 1014.7
20260905060421 77 301 0.0 0.0 0.00 0.00 0.00 97 1014.7
20260905055919 77 301 0.0 0.0 0.00 0.00 0.00 97 1014.7
20260905055415 77 301 0.0 0.0 0.00 0.00 0.00 97 1014.8
20260905054914 77 301 0.0 0.0 0.00 0.00 0.00 97 1014.7
20260905054410 77 301 0.0 0.0 0.00 0.00 0.00 98 1015.0
20260905053910 77 301 0.0 0.0 0.00 0.00 0.00 98 1015.0
20260905053405 77 301 0.0 0.0 0.00 0.00 0.00 97 1015.1
20260905052901 77 301 0.0 0.0 0.00 0.00 0.00 97 1015.0
20260905052400 77 301 0.0 0.0 0.00 0.00 0.00 97 1014.7
20260905051859 77 301 0.0 0.0 0.00 0.00 0.00 97 1015.1
20260905051356 77 301 0.0 0.0 0.00 0.00 0.00 97 1014.7
20260905050853 77 300 0.0 0.0 0.00 0.00 0.00 97 1014.8
20260905050348 77 300 0.0 0.0 0.00 0.00 0.00 96 1015.2
20260905045848 77 300 0.0 0.0 0.00 0.00 0.00 96 1015.1
20260905045343 77 300 0.0 0.0 0.00 0.00 0.00 96 1015.3
20260905044839 77 300 0.0 0.0 0.00 0.00 0.00 96 1015.4
20260905044334 77 300 0.0 0.0 0.00 0.00 0.00 96 1015.1
20260905043832 77 300 0.0 0.0 0.00 0.00 0.00 95 1015.2
20260905043328 78 300 0.0 0.0 0.00 0.00 0.00 95 1015.3
20260905042823 78 300 0.0 0.0 0.00 0.00 0.00 95 1015.2
20260905042322 78 300 0.0 0.0 0.00 0.00 0.00 95 1015.0
20260905041818 78 300 0.0 0.0 0.00 0.00 0.00 95 1015.2
20260905041314 78 300 0.0 0.0 0.00 0.00 0.00 94 1015.4
20260905040809 78 300 0.0 0.0 0.00 0.00 0.00 94 1015.1
20260905040307 78 300 0.0 0.0 0.00 0.00 0.00 94 1015.3